sat.trackr.live / text

‹ back to catalog

SDA_1664

NORAD 65974 · 2025-230A

PAYLOAD ACTIVE UNKNOWN

§ Identity

Operator
Country
US
Launch date
2025-10-15
Launch site
AFWTR
Launch vehicle
Mass (kg)
RCS (m²)

External: N2YO · Heavens-Above · Gunter

§ Orbital elements

Epoch: 2026-09-20T13:52:59.032128Z

Period
104.49 min
Inclination
81.2980°
Eccentricity
0.0001613
Mean motion
13.78096092 rev/d
Perigee alt
969.5 km
Apogee alt
971.8 km
Semi-major
7,348.8 km
B*
9.6791e-5
RAAN
124.7782°
Arg perigee
56.8121°
Mean anomaly
303.3187°
Rev number
4,691

§ Raw data

SDA_16641 65974U 25230A   26263.57846102  .00000109  00000+0  96791-4 0  99902 65974  81.2980 124.7782 0001613  56.8121 303.3187 13.78096092 46916

JSON: /api/v1/satellites/65974 · /tle

For live sub-satellite position, see the globe view (requires WebGL).

§ Visibility from observer

Set your observer location to see the next 7 days of passes ≥ 10°. The values pass through the URL so the page stays shareable.

No JS? Fill the form by hand. The geolocation button needs JavaScript.

§ Radio — SatNOGS DB

ModeDescriptionDownlinkUplink
UNKNOWN S-band telemetry 2.226 GHz

1 transmitter · refreshed weekly from db.satnogs.org